• In Portugal
  • List of Countries
  • For 7 days
  • Water Temperature
  • Satellite Maps
  • Weather Map
  • Weather Widgets
  • user-avatar
    Login

    Hourly Weather Biratnagar

    Today, 23 February, Friday

    Time Temperature Precipitation Wind Pressure Humidity
    00:00 +21°C° 0 mm 2 mps 752 mmHg 42%
    01:00 +21°C° 0 mm 2 mps 752 mmHg 42%
    02:00 +21°C° 0 mm 2 mps 752 mmHg 42%
    03:00 +20°C° 0 mm 2 mps 752 mmHg 42%
    04:00 +20°C° 0 mm 2 mps 752 mmHg 42%
    05:00 +20°C° 0 mm 2 mps 752 mmHg 42%
    06:00 +19°C° 0 mm 2 mps 752 mmHg 42%
    07:00 +21°C° 0 mm 2 mps 752 mmHg 39%
    08:00 +24°C° 0 mm 2 mps 753 mmHg 36%
    09:00 +26°C° 0 mm 2 mps 753 mmHg 33%
    10:00 +27°C° 0 mm 2 mps 753 mmHg 32%
    11:00 +29°C° 0 mm 2 mps 753 mmHg 30%
    12:00 +30°C° 0 mm 2 mps 752 mmHg 29%
    13:00 +31°C° 0 mm 2 mps 752 mmHg 28%
    14:00 +31°C° 0 mm 2 mps 751 mmHg 28%
    15:00 +33°C° 0 mm 3 mps 751 mmHg 27%
    16:00 +30°C° 0 mm 2 mps 751 mmHg 30%
    17:00 +29°C° 0 mm 2 mps 751 mmHg 33%
    18:00 +28°C° 0 mm 2 mps 751 mmHg 35%
    19:00 +27°C° 0 mm 2 mps 751 mmHg 38%
    20:00 +25°C° 0 mm 2 mps 752 mmHg 41%
    21:00 +24°C° 0 mm 2 mps 752 mmHg 44%
    22:00 +24°C° 0 mm 2 mps 752 mmHg 46%
    23:00 +23°C° 0 mm 2 mps 753 mmHg 47%

    Tomorrow, 24 February, Saturday

    Time Temperature Precipitation Wind Pressure Humidity
    00:00 +23°C° 0 mm 2 mps 753 mmHg 49%
    01:00 +21°C° 0 mm 2 mps 753 mmHg 50%
    02:00 +21°C° 0 mm 2 mps 753 mmHg 51%
    03:00 +20°C° 0 mm 2 mps 752 mmHg 52%
    04:00 +20°C° 0 mm 2 mps 753 mmHg 52%
    05:00 +20°C° 0 mm 2 mps 753 mmHg 53%
    06:00 +19°C° 0 mm 2 mps 754 mmHg 53%
    07:00 +21°C° 0 mm 2 mps 754 mmHg 48%
    08:00 +24°C° 0 mm 2 mps 755 mmHg 43%
    09:00 +26°C° 0 mm 3 mps 755 mmHg 39%
    10:00 +28°C° 0 mm 3 mps 755 mmHg 35%
    11:00 +29°C° 0 mm 3 mps 755 mmHg 32%
    12:00 +32°C° 0 mm 4 mps 755 mmHg 28%
    13:00 +33°C° 0 mm 3 mps 754 mmHg 27%
    14:00 +32°C° 0 mm 2 mps 754 mmHg 26%
    15:00 +33°C° 0 mm 1 mps 753 mmHg 25%
    16:00 +31°C° 0 mm 1 mps 753 mmHg 27%
    17:00 +30°C° 0 mm 1 mps 753 mmHg 30%
    18:00 +28°C° 0 mm 2 mps 753 mmHg 32%
    19:00 +27°C° 0 mm 2 mps 754 mmHg 34%
    20:00 +26°C° 0 mm 2 mps 754 mmHg 37%
    21:00 +25°C° 0 mm 2 mps 755 mmHg 39%
    22:00 +24°C° 0 mm 2 mps 755 mmHg 41%
    23:00 +24°C° 0 mm 2 mps 755 mmHg 43%

    Day after tomorrow, 25 February, Sunday

    Time Temperature Precipitation Wind Pressure Humidity
    00:00 +23°C° 0 mm 2 mps 755 mmHg 44%
    01:00 +23°C° 0 mm 2 mps 755 mmHg 46%
    02:00 +21°C° 0 mm 2 mps 754 mmHg 47%
    03:00 +21°C° 0 mm 2 mps 754 mmHg 49%
    04:00 +21°C° 0 mm 2 mps 754 mmHg 50%
    05:00 +20°C° 0 mm 2 mps 754 mmHg 50%
    06:00 +20°C° 0 mm 2 mps 754 mmHg 51%
    07:00 +23°C° 0 mm 2 mps 754 mmHg 46%
    08:00 +25°C° 0 mm 2 mps 755 mmHg 42%
    09:00 +27°C° 0 mm 3 mps 756 mmHg 38%
    10:00 +28°C° 0 mm 2 mps 755 mmHg 35%
    11:00 +30°C° 0 mm 2 mps 755 mmHg 32%
    12:00 +31°C° 0 mm 2 mps 755 mmHg 30%
    13:00 +32°C° 0 mm 2 mps 754 mmHg 28%
    14:00 +32°C° 0 mm 2 mps 753 mmHg 27%
    15:00 +34°C° 0 mm 2 mps 752 mmHg 26%
    16:00 +32°C° 0 mm 2 mps 752 mmHg 28%
    17:00 +30°C° 0 mm 2 mps 752 mmHg 31%
    18:00 +29°C° 0 mm 2 mps 752 mmHg 34%
    19:00 +28°C° 0 mm 2 mps 752 mmHg 37%
    20:00 +26°C° 0 mm 2 mps 753 mmHg 40%
    21:00 +25°C° 0 mm 2 mps 753 mmHg 43%
    22:00 +24°C° 0 mm 2 mps 753 mmHg 44%
    23:00 +24°C° 0 mm 2 mps 753 mmHg 45%

    26 February, Monday

    Time Temperature Precipitation Wind Pressure Humidity
    00:00 +23°C° 0 mm 2 mps 753 mmHg 47%
    01:00 +23°C° 0 mm 2 mps 752 mmHg 47%
    02:00 +21°C° 0 mm 2 mps 752 mmHg 47%
    03:00 +21°C° 0 mm 2 mps 752 mmHg 47%
    04:00 +20°C° 0 mm 2 mps 752 mmHg 47%
    05:00 +20°C° 0 mm 2 mps 752 mmHg 46%
    06:00 +20°C° 0 mm 2 mps 752 mmHg 46%
    07:00 +23°C° 0 mm 2 mps 753 mmHg 42%
    08:00 +25°C° 0 mm 2 mps 753 mmHg 38%
    09:00 +27°C° 0 mm 2 mps 754 mmHg 34%
    10:00 +28°C° 0 mm 2 mps 754 mmHg 32%
    11:00 +30°C° 0 mm 2 mps 753 mmHg 30%
    12:00 +31°C° 0 mm 2 mps 753 mmHg 28%
    13:00 +32°C° 0 mm 2 mps 752 mmHg 27%
    14:00 +34°C° 0 mm 3 mps 751 mmHg 25%
    15:00 +34°C° 0 mm 3 mps 750 mmHg 24%
    16:00 +33°C° 0 mm 3 mps 751 mmHg 27%
    17:00 +30°C° 0 mm 2 mps 751 mmHg 30%
    18:00 +29°C° 0 mm 2 mps 751 mmHg 33%
    19:00 +28°C° 0 mm 2 mps 751 mmHg 35%
    20:00 +27°C° 0 mm 2 mps 752 mmHg 37%
    21:00 +25°C° 0 mm 2 mps 753 mmHg 39%
    22:00 +25°C° 0 mm 2 mps 753 mmHg 41%
    23:00 +24°C° 0 mm 2 mps 753 mmHg 43%

    27 February, Tuesday

    Time Temperature Precipitation Wind Pressure Humidity
    00:00 +23°C° 0 mm 1 mps 753 mmHg 44%
    01:00 +23°C° 0 mm 1 mps 752 mmHg 45%
    02:00 +23°C° 0 mm 1 mps 752 mmHg 47%
    03:00 +22°C° 0 mm 1 mps 752 mmHg 48%
    04:00 +21°C° 0 mm 2 mps 752 mmHg 49%
    05:00 +20°C° 0 mm 2 mps 752 mmHg 50%
    06:00 +20°C° 0 mm 2 mps 752 mmHg 51%
    07:00 +23°C° 0 mm 2 mps 753 mmHg 47%
    08:00 +25°C° 0 mm 2 mps 753 mmHg 42%
    09:00 +27°C° 0 mm 2 mps 754 mmHg 38%
    10:00 +29°C° 0 mm 2 mps 753 mmHg 35%
    11:00 +30°C° 0 mm 3 mps 753 mmHg 33%
    12:00 +33°C° 0 mm 3 mps 753 mmHg 30%
    13:00 +33°C° 0 mm 3 mps 752 mmHg 28%
    14:00 +34°C° 0 mm 2 mps 751 mmHg 27%
    15:00 +34°C° 0 mm 2 mps 750 mmHg 25%
    16:00 +32°C° 0 mm 2 mps 750 mmHg 28%
    17:00 +31°C° 0 mm 2 mps 750 mmHg 30%
    18:00 +29°C° 0 mm 2 mps 750 mmHg 33%
    19:00 +28°C° 0 mm 2 mps 751 mmHg 35%
    20:00 +27°C° 0 mm 1 mps 751 mmHg 38%
    21:00 +26°C° 0 mm 1 mps 752 mmHg 40%
    22:00 +25°C° 0 mm 1 mps 752 mmHg 41%
    23:00 +24°C° 0 mm 1 mps 752 mmHg 43%

    28 February, Wednesday

    Time Temperature Precipitation Wind Pressure Humidity
    00:00 +24°C° 0 mm 1 mps 752 mmHg 45%
    01:00 +24°C° 0 mm 1 mps 751 mmHg 46%
    02:00 +23°C° 0 mm 1 mps 751 mmHg 47%
    03:00 +23°C° 0 mm 1 mps 751 mmHg 48%
    04:00 +22°C° 0 mm 1 mps 751 mmHg 48%
    05:00 +22°C° 0 mm 1 mps 751 mmHg 49%
    06:00 +22°C° 0 mm 1 mps 751 mmHg 50%
    07:00 +24°C° 0 mm 1 mps 751 mmHg 46%
    08:00 +26°C° 0 mm 2 mps 752 mmHg 42%
    09:00 +28°C° 0 mm 2 mps 752 mmHg 38%
    10:00 +29°C° 0 mm 2 mps 752 mmHg 35%
    11:00 +31°C° 0 mm 2 mps 752 mmHg 31%
    12:00 +34°C° 0 mm 2 mps 751 mmHg 28%
    13:00 +34°C° 0 mm 2 mps 751 mmHg 27%
    14:00 +35°C° 0 mm 2 mps 750 mmHg 25%
    15:00 +35°C° 0 mm 2 mps 749 mmHg 24%
    16:00 +34°C° 0 mm 2 mps 749 mmHg 26%
    17:00 +32°C° 0 mm 2 mps 750 mmHg 28%
    18:00 +30°C° 0 mm 2 mps 750 mmHg 31%
    19:00 +29°C° 0 mm 2 mps 750 mmHg 33%
    20:00 +28°C° 0 mm 2 mps 751 mmHg 36%
    21:00 +26°C° 0 mm 2 mps 751 mmHg 39%
    22:00 +26°C° 0 mm 2 mps 751 mmHg 40%
    23:00 +25°C° 0 mm 2 mps 751 mmHg 42%
    Show more